Regional Weather Roundup
Issued by NWS

Home | Current Version | Previous Version | Graphics & Text | Print | Product List | Glossary On
Versions: 1 2 3 4 5 6 7 8 9 10 11 12 13 14 15 16 17 18 19 20 21 22 23 24 25 26 27 28 29 30 31 32 33 34 35 36 37 38 39 40 41 42 43 44 45 46 47 48 49 50
000
ASUS43 KLOT 011800
RWRIL

ILLINOIS REGIONAL WEATHER ROUNDUP
NATIONAL WEATHER SERVICE CHICAGO/ROMEOVILLE IL
100 PM CDT WED JUL 01 2015

NOTE: "FAIR" INDICATES FEW OR NO CLOUDS BELOW 12,000 FEET WITH NO
SIGNIFICANT WEATHER AND/OR OBSTRUCTIONS TO VISIBILITY.

* THESE STATIONS ARE NOT UNDER NWS QUALITY CONTROL. THEY ALSO MAY NOT
  REPORT WEATHER SUCH AS PRECIPITATION OR FOG.

ILZ001-002-007-009-015-016-024-011900-
NORTHWEST ILLINOIS

CITY           SKY/WX    TMP DP  RH WIND       PRES   REMARKS
MOLINE         PTSUNNY   69  60  73 E10       29.95S
6HR MIN TEMP:  63; 6HR MAX TEMP:  70;

STERLING*      CLOUDY    70  61  73 NE6       29.96S
$$

ILZ003-004-008-010-011-017-018-011900-
NORTH CENTRAL ILLINOIS

CITY           SKY/WX    TMP DP  RH WIND       PRES   REMARKS
ROCKFORD       CLOUDY    69  55  60 NW5       29.98F
6HR MIN TEMP:  59; 6HR MAX TEMP:  69;

$$

ILZ005-006-012>014-019>023-011900-
NORTHEAST ILLINOIS

CITY           SKY/WX    TMP DP  RH WIND       PRES   REMARKS
CHICAGO-OHARE  CLOUDY    69  54  58 NE8       29.96F
6HR MIN TEMP:  56; 6HR MAX TEMP:  69;

CHICAGO-MIDWAY CLOUDY    66  55  67 E7        29.97S
6HR MIN TEMP:  60; 6HR MAX TEMP:  67;

AURORA         CLOUDY    68  57  68 N5        29.97F
6HR MIN TEMP:  59; 6HR MAX TEMP:  69;

WAUKEGAN       SUNNY     61  50  67 NE8       29.98S
6HR MIN TEMP:  55; 6HR MAX TEMP:  63;

DUPAGE AIRPORT CLOUDY    68  57  68 N7        29.96F
6HR MIN TEMP:  57; 6HR MAX TEMP:  69;

WHEELING       MOSUNNY   63  53  70 NE9       29.99R
6HR MIN TEMP:  56; 6HR MAX TEMP:  67;

NORTHERLY ISL    N/A     60  53  77 NE9         N/A
$$

LMZ740>746-011900-
SOUTHERN LAKE MICHIGAN

STATION/POSITION SKY/WX   TEMP    WIND        PRES    VSBY  WAVE
                          AIR SEA DIR/SP/G                  HT/PER
                          (F)     (DEG/KT/KT) (MB)    (MI)  (FT/S)
HARRISON CRIB              56      50/  8/ 10   N/A
BURNHAM HARBOR             60      40/  8/  9   N/A
CALUMET HARBOR             59      20/  7/ 11   N/A
BURNS HARBOR               58      20/ 11/ 13 1016.3R
MICHIGAN CITY              57     350/ 11/ 14   N/A
MICHIGAN CITY 6N           58 65   20/ 10/ 14   N/A           3/ 5
ST. JOSEPH                 58 63                N/A           3/ 5
$$

ILZ025>027-034>036-040-047-049-050-058-095>099-011900-
WEST-CENTRAL ILLINOIS

CITY           SKY/WX    TMP DP  RH WIND       PRES   REMARKS
QUINCY         PTSUNNY   80  67  64 VRB3      29.89F HX  82
$$

ILZ028>032-037-038-041>044-048-051>054-059>061-011900-
CENTRAL ILLINOIS

CITY           SKY/WX    TMP DP  RH WIND       PRES   REMARKS
DECATUR        CLOUDY    78  70  76 NE8       29.91F HAZE    HX  80
PEORIA         FAIR      76  63  64 E9        29.92F
6HR MIN TEMP:  68; 6HR MAX TEMP:  76;

SPRINGFIELD    FAIR      81  68  64 CALM      29.90F HX  84
6HR MIN TEMP:  71; 6HR MAX TEMP:  82;

TAYLORVILLE    NOT AVBL
$$

ILZ033-039-045-046-055>057-062-063-011900-
EAST-CENTRAL ILLINOIS

CITY           SKY/WX    TMP DP  RH WIND       PRES   REMARKS
CHAMPAIGN      CLOUDY    73  66  78 E6        29.93F
MATTOON        LGT RAIN  73  66  78 CALM      29.90F VSB 1
$$

ILZ079-100>102-011900-
SOUTHWEST ILLINOIS

CITY           SKY/WX    TMP DP  RH WIND       PRES   REMARKS
ALTON          CLOUDY    79  73  83 W6        29.91F HX  82
CAHOKIA*       FAIR      81  68  64 W9        29.90F HX  84
$$

ILZ064>066-069>071-074>076-080>082-084>086-088>090-092>094-011900-
SOUTH-CENTRAL ILLINOIS

CITY           SKY/WX    TMP DP  RH WIND       PRES   REMARKS
CARBONDALE     CLOUDY    75  68  78 SW10      29.93F
6HR MIN TEMP:  71; 6HR MAX TEMP:  75; 6HR PCP:  0.07;

MARION         CLOUDY    75  70  83 SW9       29.96F
MT. VERNON     CLOUDY    77  66  69 W5        29.94F
$$

ILZ067-068-072-073-078-083-087-091-011900-
SOUTHEAST ILLINOIS

CITY           SKY/WX    TMP DP  RH WIND       PRES   REMARKS
LAWRENCEVILLE  CLOUDY    76  72  87 S7        29.92F FOG
$$

ABBREVIATIONS USED IN REMARKS
   TC - TEMPERATURE IN CELSIUS
  WCI - WIND CHILL INDEX
   HX - HEAT INDEX
  VSB - VISIBILITY
$$



USA.gov is the U.S. government's official web portal to all federal, state and local government web resources and services.